This is the latest recevied weather packets stored in our database for station/object KMASWX. If no packets are shown the sender has not sent any weather packets the latest 1 day(s).
| Time | Temp. | Humidity | Pressure | Rain* | Wind** | Luminosity | Snow |
|---|---|---|---|---|---|---|---|
| 1777988386 | 9.44° C | 64% | - | 0 mm | 0.45 m/s, 306° | - | - |
| 1777988082 | 9.44° C | 64% | - | 0 mm | 1.34 m/s, 334° | - | - |
| 1777987778 | 9.44° C | 63% | - | 0 mm | 0 m/s | - | - |
| 1777987472 | 9.44° C | 62% | - | 0 mm | 0 m/s | - | - |
| 1777986557 | 10° C | 60% | - | 0 mm | 1.79 m/s, 28° | - | - |
| 1777986253 | 10° C | 59% | - | 0 mm | 1.34 m/s, 25° | - | - |
| 1777985950 | 10° C | 58% | - | 0 mm | 0.89 m/s, 22° | - | - |
| 1777985037 | 10° C | 58% | - | 0 mm | 0 m/s | - | - |
| 1777983819 | 9.44° C | 60% | - | 0 mm | 0.89 m/s, 25° | - | - |
| 1777983512 | 10° C | 59% | - | 0 mm | 0 m/s | - | - |
| 1777983208 | 10° C | 58% | - | 0 mm | 0 m/s | - | - |
| 1777982905 | 10.56° C | 57% | - | 0 mm | 0 m/s | - | - |
| 1777982602 | 10.56° C | 56% | - | 0 mm | 0 m/s | - | - |
| 1777981991 | 10.56° C | 56% | - | 0 mm | 0.45 m/s, 19° | - | - |
| 1777981687 | 11.11° C | 55% | - | 0 mm | 1.34 m/s, 2° | - | - |
| 1777981384 | 11.11° C | 54% | - | 0 mm | 0.89 m/s, 25° | - | - |
| 1777981078 | 11.11° C | 54% | - | 0 mm | 0.89 m/s, 15° | - | - |
| 1777980774 | 11.11° C | 54% | - | 0 mm | 0 m/s | - | - |
| 1777980162 | 11.11° C | 56% | - | 0 mm | 0.89 m/s, 36° | - | - |
| 1777979859 | 11.11° C | 54% | - | 0 mm | 0 m/s | - | - |
| 1777979555 | 11.67° C | 53% | - | 0 mm | 0.45 m/s, 331° | - | - |
| 1777979252 | 11.67° C | 53% | - | 0 mm | 0 m/s | - | - |
| 1777978949 | 11.67° C | 53% | - | 0 mm | 0.89 m/s, 9° | - | - |
| 1777978341 | 11.67° C | 53% | - | 0 mm | 1.34 m/s, 358° | - | - |
| 1777978037 | 11.67° C | 53% | - | 0 mm | 0.89 m/s, 0° | - | - |
* Rain latest 24 hours (hover to see other rain measurements)
** Current wind speed in m/s (hover to see current wind gust speed)